カタログに戻る

BREEZE-M DEB

LostHEO
NORAD 38615·DEBRIS·🇷🇺 Russia

打ち上げ Mar 14, 2008 から Baikonur Cosmodrome

Loading…

次のパス (今後24時間)

TLE

古いSource: Space-Track

元期: Jun 23, 2022, 23:37 UTC

1 38615U 08011BN  22174.98420852 -.00000236  00000-0 -31647-3 0  9994
2 38615  49.2257  28.2650 6466937 244.7367  37.0163  3.11787707124964

AllMySatでBREEZE-M DEBをリアルタイム追跡

Download on the App Store